This is the latest recevied weather packets stored in our database for station/object KG5MMT-12. If no packets are shown the sender has not sent any weather packets the latest 1 day(s).
| Time | Temp. | Humidity | Pressure | Rain* | Wind** | Luminosity | Snow |
|---|---|---|---|---|---|---|---|
| 1778018929 | 13.89° C | 46% | 0 hPa | 0 mm | 0.45 m/s, 185° | - | - |
| 1778018629 | 13.89° C | 47% | 0 hPa | 0 mm | 0.89 m/s, 2° | - | - |
| 1778018329 | 13.89° C | 47% | 0 hPa | 0 mm | 0.45 m/s, 305° | - | - |
| 1778018029 | 13.89° C | 46% | 0 hPa | 0 mm | 1.79 m/s, 295° | - | - |
| 1778017729 | 13.89° C | 45% | 0 hPa | 0 mm | 2.24 m/s, 78° | - | - |
| 1778017429 | 14.44° C | 44% | 0 hPa | 0 mm | 2.68 m/s, 262° | - | - |
| 1778017129 | 15° C | 42% | 0 hPa | 0 mm | 2.24 m/s, 286° | - | - |
| 1778016829 | 15° C | 44% | 0 hPa | 0 mm | 2.24 m/s, 258° | - | - |
| 1778016529 | 15° C | 44% | 0 hPa | 0 mm | 0.45 m/s, 210° | - | - |
| 1778016229 | 15° C | 45% | 0 hPa | 0 mm | 0 m/s | - | - |
| 1778015929 | 14.44° C | 46% | 0 hPa | 0 mm | 1.34 m/s, 310° | - | - |
| 1778015629 | 15° C | 45% | 0 hPa | 0 mm | 4.02 m/s, 254° | - | - |
| 1778015329 | 14.44° C | 44% | 0 hPa | 0 mm | 2.24 m/s, 30° | - | - |
| 1778015029 | 15° C | 45% | 0 hPa | 0 mm | 2.24 m/s, 286° | - | - |
| 1778014729 | 15° C | 46% | 0 hPa | 0 mm | 1.34 m/s, 222° | - | - |
| 1778014429 | 15° C | 45% | 0 hPa | 0 mm | 2.68 m/s, 320° | - | - |
| 1778014129 | 15.56° C | 43% | 0 hPa | 0 mm | 0.89 m/s, 219° | - | - |
| 1778013829 | 15° C | 45% | 0 hPa | 0 mm | 4.47 m/s, 336° | - | - |
| 1778013529 | 14.44° C | 46% | 0 hPa | 0 mm | 1.79 m/s, 21° | - | - |
| 1778013229 | 14.44° C | 45% | 0 hPa | 0 mm | 5.81 m/s, 255° | - | - |
| 1778012929 | 15° C | 45% | 0 hPa | 0 mm | 2.24 m/s, 5° | - | - |
| 1778012629 | 14.44° C | 46% | 0 hPa | 0 mm | 3.13 m/s, 118° | - | - |
| 1778012329 | 14.44° C | 45% | 0 hPa | 0 mm | 1.34 m/s, 358° | - | - |
| 1778012029 | 14.44° C | 45% | 0 hPa | 0 mm | 0.45 m/s, 16° | - | - |
| 1778011729 | 15° C | 44% | 0 hPa | 0 mm | 3.13 m/s, 67° | - | - |
* Rain latest hour (hover to see other rain measurements)
** Current wind speed in m/s (hover to see current wind gust speed)